This is the latest recevied weather packets stored in our database for station/object KH6DH-13. If no packets are shown the sender has not sent any weather packets the latest 10 day(s).
| Time | Temp. | Humidity | Pressure | Rain* | Wind** | Luminosity | Snow |
|---|---|---|---|---|---|---|---|
| 1777730448 | 22.22° C | - | - | 0 mm | 0.45 m/s, 347° | - | - |
| 1777729847 | 22.22° C | - | - | 0 mm | 0.89 m/s, 359° | - | - |
| 1777729246 | 22.22° C | - | - | 0 mm | 0 m/s | - | - |
| 1777728645 | 22.22° C | - | - | 0 mm | 0 m/s | - | - |
| 1777728044 | 22.22° C | - | - | 0 mm | 2.24 m/s, 97° | - | - |
| 1777727442 | 22.22° C | - | - | 0 mm | 0.45 m/s, 338° | - | - |
| 1777726841 | 22.22° C | - | - | 0 mm | 1.79 m/s, 25° | - | - |
| 1777726240 | 22.78° C | - | - | 0 mm | 2.24 m/s, 24° | - | - |
| 1777725639 | 22.22° C | - | - | 0 mm | 1.79 m/s, 329° | - | - |
| 1777725038 | 22.22° C | - | - | 0 mm | 1.34 m/s, 24° | - | - |
| 1777724437 | 22.22° C | - | - | 0 mm | 2.68 m/s, 98° | - | - |
| 1777723836 | 22.78° C | - | - | 0 mm | 1.34 m/s, 350° | - | - |
| 1777723235 | 22.22° C | - | - | 0 mm | 0.89 m/s, 302° | - | - |
| 1777722634 | 22.22° C | - | - | 0 mm | 0.89 m/s, 98° | - | - |
| 1777722033 | 22.78° C | - | - | 0 mm | 1.34 m/s, 114° | - | - |
| 1777721432 | 22.22° C | - | - | 0 mm | 1.34 m/s, 45° | - | - |
| 1777720831 | 22.78° C | - | - | 0 mm | 0.89 m/s, 7° | - | - |
| 1777720230 | 22.22° C | - | - | 0 mm | 1.79 m/s, 177° | - | - |
| 1777719629 | 22.22° C | - | - | 0 mm | 0.89 m/s, 101° | - | - |
| 1777719028 | 22.22° C | - | - | 0 mm | 1.34 m/s, 37° | - | - |
| 1777718427 | 22.22° C | - | - | 0 mm | 0.89 m/s, 30° | - | - |
| 1777717826 | 22.78° C | - | - | 0 mm | 1.34 m/s, 23° | - | - |
| 1777717225 | 22.22° C | - | - | 0 mm | 0.45 m/s, 30° | - | - |
| 1777716624 | 22.22° C | - | - | 0 mm | 1.34 m/s, 328° | - | - |
| 1777716023 | 22.78° C | - | - | 0 mm | 0.89 m/s, 89° | - | - |
* Rain latest hour (hover to see other rain measurements)
** Current wind speed in m/s (hover to see current wind gust speed)